GW4477 Weather Reports


time (UTC)temp
F
wind
direction
speed
knots
gust
knots
rain 1hr
in
rain 24hr
in
rain mn
in
humidity
%
barometer
mb
20260831191520 90 213 0.9 5.2 0.00 0.00 0.00 47 1017.6
20260831190025 90 202 0.9 3.5 0.00 0.00 0.00 49 1017.6
20260831184529 90 152 1.7 3.5 0.00 0.00 0.00 50 1017.9
20260831183035 89 87 0.9 2.6 0.00 0.00 0.00 51 1017.9
20260831181515 89 255 0.0 3.5 0.00 0.00 0.00 51 1017.9
20260831180026 88 101 0.0 2.6 0.00 0.00 0.00 53 1018.1
20260831174529 88 296 0.9 3.5 0.00 0.00 0.00 55 1018.2
20260831173029 87 360 0.9 3.5 0.00 0.00 0.00 55 1018.1
20260831171502 86 9 0.0 3.5 0.00 0.00 0.00 56 1018.3
20260831170005 86 327 0.0 3.5 0.00 0.00 0.00 59 1018.1
20260831164510 86 316 1.7 4.3 0.00 0.00 0.00 59 1018.1
20260831163007 86 302 0.0 4.3 0.00 0.00 0.00 56 1017.9
20260831161512 85 326 0.9 3.5 0.00 0.00 0.00 58 1017.8
20260831160003 84 201 0.0 2.6 0.00 0.00 0.00 57 1017.7
20260831154516 83 211 0.0 4.3 0.00 0.00 0.00 57 1017.6
20260831153010 82 183 2.6 5.2 0.00 0.00 0.00 58 1017.5
20260831151512 81 201 0.9 5.2 0.00 0.00 0.00 61 1017.4
20260831150016 80 199 2.6 6.1 0.00 0.00 0.00 63 1017.4
20260831144504 79 166 2.6 7.0 0.00 0.00 0.00 65 1017.5
20260831143007 78 171 3.5 6.1 0.00 0.00 0.00 67 1017.4
20260831141534 77 152 1.7 6.1 0.00 0.00 0.00 70 1017.4
20260831140027 75 164 4.3 7.0 0.00 0.00 0.00 75 1017.4
20260831134534 73 122 2.6 6.1 0.00 0.00 0.00 82 1017.2
20260831133007 72 119 1.7 7.0 0.00 0.00 0.00 85 1017.0
20260831131507 71 146 2.6 5.2 0.00 0.00 0.00 86 1017.0
20260831130010 70 142 1.7 3.5 0.00 0.00 0.00 86 1017.0
20260831124520 70 123 1.7 2.6 0.00 0.00 0.00 84 1016.8
20260831123026 70 169 0.0 5.2 0.00 0.00 0.00 83 1016.8
20260831121505 70 99 0.9 2.6 0.00 0.00 0.00 83 1016.6
20260831120010 70 86 0.0 3.5 0.00 0.00 0.00 82 1016.6
20260831114517 71 73 0.0 6.1 0.00 0.00 0.00 81 1016.4
20260831113024 71 144 1.7 7.0 0.00 0.00 0.00 80 1016.8
20260831111531 71 19 1.7 6.1 0.00 0.00 0.00 79 1016.7
20260831110017 72 139 1.7 6.1 0.00 0.00 0.00 79 1017.1
20260831104514 72 26 0.9 4.3 0.00 0.00 0.00 78 1017.3
20260831103020 72 360 0.9 3.5 0.00 0.00 0.00 77 1017.4
20260831101530 72 311 1.7 7.8 0.00 0.00 0.00 77 1017.4
20260831100032 72 35 2.6 5.2 0.00 0.00 0.00 77 1017.4
20260831094514 72 13 2.6 8.7 0.00 0.00 0.00 75 1017.4
20260831093024 72 347 4.3 7.0 0.00 0.00 0.00 74 1017.4
20260831091523 73 42 3.5 7.0 0.00 0.00 0.00 72 1017.3
20260831090028 73 9 3.5 7.8 0.00 0.00 0.00 71 1017.2
20260831084529 73 334 4.3 7.8 0.00 0.00 0.00 71 1017.1
20260831083020 73 306 5.2 9.6 0.00 0.00 0.00 76 1016.8
20260831081526 73 349 4.3 7.8 0.00 0.00 0.00 79 1016.8
20260831080027 73 226 0.0 1.7 0.00 0.00 0.00 78 1016.2
20260831074534 73 179 0.0 2.6 0.00 0.00 0.00 78 1015.7
20260831073035 73 162 1.7 4.3 0.00 0.00 0.00 77 1015.6
20260831071520 73 121 0.0 1.7 0.00 0.00 0.00 77 1015.9
20260831070035 74 116 0.9 1.7 0.00 0.00 0.00 77 1015.7
20260831064531 74 106 0.0 0.9 0.00 0.00 0.00 77 1015.7
20260831063030 74 106 0.0 1.7 0.00 0.00 0.00 76 1015.8
20260831061532 75 128 0.0 1.7 0.00 0.00 0.00 75 1015.8
20260831060029 75 128 0.0 1.7 0.00 0.00 0.00 73 1015.8
20260831054530 76 106 0.0 1.7 0.00 0.00 0.00 72 1015.9
20260831053034 77 125 0.0 1.7 0.00 0.00 0.00 71 1016.0
20260831051538 77 30 0.0 2.6 0.00 0.00 0.00 70 1016.0
20260831050037 77 5 0.0 3.5 0.00 0.00 0.00 70 1016.0
20260831044507 78 350 1.7 7.0 0.00 0.00 0.00 69 1016.1
20260831043011 80 337 1.7 9.6 0.00 0.00 0.00 63 1016.3
20260831041522 82 94 0.9 5.2 0.00 0.00 0.00 56 1015.6
20260831040024 83 93 0.0 1.7 0.00 0.00 0.00 50 1015.3
20260831034506 84 161 0.0 2.6 0.00 0.00 0.00 53 1014.7
20260831033010 83 24 1.7 2.6 0.00 0.00 0.00 52 1014.2
20260831031511 84 31 0.0 3.5 0.00 0.00 0.00 53 1013.5
20260831030023 84 156 1.7 7.8 0.00 0.00 0.00 54 1013.2
20260831024505 83 126 2.6 5.2 0.00 0.00 0.00 54 1013.1
20260831023007 83 136 1.7 3.5 0.00 0.00 0.00 55 1013.3
20260831021512 84 128 0.0 1.7 0.00 0.00 0.00 54 1013.0
20260831020016 85 114 0.0 1.7 0.00 0.00 0.00 53 1012.9
20260831014536 86 120 0.0 0.0 0.00 0.00 0.00 50 1012.9
20260831013005 87 120 0.0 0.0 0.00 0.00 0.00 50 1012.9
20260831011513 89 120 0.0 0.0 0.00 0.00 0.00 47 1013.0
20260831010016 90 120 0.0 0.0 0.00 0.00 0.00 45 1012.9
20260831004519 92 120 0.0 0.0 0.00 0.00 0.00 43 1013.0
20260831003030 94 120 0.0 1.7 0.00 0.00 0.00 41 1012.9
20260831001505 96 153 0.9 3.5 0.00 0.00 0.00 37 1012.9
20260831000016 96 122 0.0 1.7 0.00 0.00 0.00 35 1013.0
20260830234516 97 182 0.9 4.3 0.00 0.00 0.00 35 1013.1
20260830233027 98 144 0.9 2.6 0.00 0.00 0.00 34 1013.1
20260830231534 98 145 0.0 3.5 0.00 0.00 0.00 33 1012.9
20260830230010 98 137 0.0 4.3 0.00 0.00 0.00 34 1012.9
20260830224516 98 175 1.7 3.5 0.00 0.00 0.00 33 1012.9
20260830223028 97 212 0.0 4.3 0.00 0.00 0.00 33 1013.1
20260830221504 97 182 0.0 5.2 0.00 0.00 0.00 33 1013.1
20260830220003 98 137 1.7 4.3 0.00 0.00 0.00 31 1013.1
20260830214504 99 138 1.7 5.2 0.00 0.00 0.00 32 1013.2
20260830213003 98 201 0.0 4.3 0.00 0.00 0.00 31 1013.3
20260830211504 98 326 0.0 6.1 0.00 0.00 0.00 33 1013.4
20260830210004 98 201 0.9 4.3 0.00 0.00 0.00 31 1013.5
20260830204503 98 215 0.0 1.7 0.00 0.00 0.00 34 1013.8
20260830203009 98 27 0.0 3.5 0.00 0.00 0.00 37 1013.8
20260830201504 97 349 0.9 2.6 0.00 0.00 0.00 36 1013.9
20260830200004 97 173 0.9 4.3 0.00 0.00 0.00 34 1014.1
20260830194506 97 281 0.9 2.6 0.00 0.00 0.00 38 1014.2
20260830193003 96 36 1.7 4.3 0.00 0.00 0.00 37 1014.3